Wind_Speed
21 19 16 12 10 8 6 5 4 5 5 3 1 4 5 9 13 16 18 20 23 24 26 29 30 30 31 33 32 31 31 32 35 38 42 45 48 51 51 47 44 42 42
22 20 17 16 13 10 9 7 6 7 7 3 2 5 4 7 10 15 19 23 26 28 28 31 34 37 36 35 36 37 37 37 39 41 43 47 51 53 52 51 48 43 42
23 21 19 17 15 13 10 9 8 9 9 5 5 4 4 7 13 16 18 22 25 26 28 31 34 36 38 39 41 42 42 44 43 44 46 48 52 54 53 53 50 44 45
25 22 19 18 17 16 15 12 11 11 12 11 7 3 5 9 12 14 17 20 24 27 29 32 34 37 40 42 41 43 45 47 47 49 49 49 52 51 52 55 54 48 48
27 24 21 21 21 18 16 15 14 13 15 12 6 1 6 7 12 14 16 19 23 27 30 31 33 36 38 40 40 40 43 47 50 51 52 51 50 49 56 56 56 56 57
29 25 24 23 21 19 19 18 17 17 16 11 7 4 5 5 9 12 16 20 24 27 29 31 34 36 38 41 41 39 40 45 48 51 52 52 52 57 59 56 62 67 66
29 28 26 24 21 21 23 20 17 16 18 11 9 7 4 2 8 12 16 21 24 25 28 34 36 39 40 39 41 39 39 41 45 49 51 53 55 58 59 62 64 69 68
30 27 26 24 23 23 23 20 18 17 17 13 12 10 6 4 10 15 18 23 26 26 30 35 38 38 43 45 42 37 39 40 43 46 50 55 57 58 61 64 67 70 74
30 27 26 24 24 24 21 20 19 17 17 14 13 11 9 9 13 17 21 25 26 24 27 31 33 37 42 44 43 40 36 39 43 46 49 53 57 60 62 64 68 73 74
30 28 27 26 26 24 23 22 23 17 14 10 10 11 11 10 16 20 23 31 34 39 38 37 34 36 41 42 43 40 37 38 42 46 49 53 57 59 62 66 71 75 75
30 29 30 28 26 26 27 25 22 18 15 11 10 11 11 13 17 24 27 29 36 41 44 44 47 37 40 38 44 41 38 38 41 44 49 53 57 62 65 69 72 77 74
32 33 30 28 28 28 29 25 22 19 16 14 14 15 14 17 22 26 30 33 37 42 46 48 46 47 49 37 36 39 38 39 42 44 50 53 57 61 65 70 74 79 76
30 30 30 30 30 29 29 27 25 22 19 17 17 19 20 22 26 31 35 41 40 43 47 49 54 54 50 41 36 36 39 41 45 47 50 53 57 60 64 70 74 79 79
31 31 32 31 30 30 31 30 28 24 22 21 21 24 26 28 30 36 41 43 41 41 48 54 54 51 52 57 41 39 42 44 46 50 52 54 57 60 63 69 73 78 81
33 33 31 31 32 34 36 36 33 31 28 26 25 26 29 30 35 44 44 44 46 50 52 51 51 45 53 48 33 36 41 45 49 54 54 55 59 59 65 70 73 77 80
35 32 31 32 32 34 34 35 35 34 34 33 32 33 32 35 44 53 52 51 50 50 48 57 60 53 49 44 40 34 39 45 51 56 55 55 58 59 65 70 74 79 83
33 31 30 32 32 32 33 31 29 29 29 31 36 38 43 49 43 49 57 49 51 60 58 58 53 56 54 51 34 28 37 45 49 56 55 54 55 58 64 69 74 79 76
32 32 32 31 30 30 31 31 33 33 35 36 40 44 43 41 49 50 49 54 56 55 57 63 59 54 66 57 52 33 39 44 48 54 54 52 53 58 64 68 75 76 73
41 40 39 39 39 39 38 39 40 40 38 40 43 48 49 46 48 51 55 57 55 54 58 60 64 59 65 57 42 45 44 44 48 52 50 51 52 58 63 68 78 74 71
46 45 45 46 45 47 47 45 45 45 45 44 47 50 51 52 52 54 57 58 58 55 58 62 60 61 64 61 52 43 43 48 47 44 49 48 51 58 63 71 76 70 68
53 55 56 56 54 53 56 56 53 52 50 49 50 53 55 56 56 59 59 56 57 57 60 57 55 53 59 59 56 50 48 51 50 40 44 46 50 55 64 69 72 63 62
55 54 60 61 60 60 59 59 58 58 54 54 55 55 56 56 57 56 53 51 52 53 52 49 50 52 58 63 57 65 66 70 54 36 40 45 49 57 59 66 66 60 59
53 53 54 59 61 61 61 59 57 56 56 56 57 58 58 56 53 49 46 46 48 49 48 47 50 57 59 63 61 64 62 71 49 35 37 43 48 55 60 64 65 60 58
55 60 59 59 56 55 56 54 53 55 55 55 55 56 56 53 49 47 45 44 45 45 45 47 49 56 58 62 64 69 61 62 37 31 36 42 46 53 59 60 60 58 57
56 58 57 56 58 57 57 56 56 56 58 58 57 56 55 54 52 51 50 47 46 46 45 48 50 57 60 63 67 77 64 43 36 33 36 40 43 49 52 56 54 55 50
65 65 65 63 61 59 57 57 59 58 59 60 60 60 60 58 56 55 53 52 50 48 44 46 49 55 58 65 45 36 37 25 27 31 38 38 41 45 48 51 50 47 45
Wind_Direction
185 185 188 183 176 175 170 177 173 185 174 178 285 339 352 2 360 3 9 15 16 16 19 19 18 14 15 14 12 5 359 359 358 357 357 355 353 355 352 354 352 347 341
193 187 192 188 180 176 181 196 196 202 203 219 309 309 350 1 11 12 17 17 15 10 13 13 12 12 10 7 9 10 6 360 356 355 354 354 353 353 354 355 352 349 343
198 191 194 194 194 192 192 204 210 224 223 244 275 327 11 26 12 6 11 12 8 7 6 7 3 1 1 359 360 2 4 2 359 354 353 354 352 353 355 353 352 349 347
201 199 197 200 204 203 200 209 219 230 241 247 263 328 31 20 18 15 14 13 8 4 2 357 355 351 350 349 350 352 355 356 357 356 354 353 351 355 358 355 352 346 344
204 204 203 205 209 207 205 208 221 228 237 234 229 154 54 24 28 25 13 10 6 2 359 355 349 346 342 342 339 343 346 348 350 355 352 353 353 355 354 360 355 347 342
205 207 211 212 212 207 208 211 222 228 241 222 194 140 104 48 19 4 355 353 349 348 352 347 348 345 340 336 336 334 338 341 344 349 349 349 351 351 352 353 352 352 348
208 212 217 217 216 215 214 215 222 229 232 212 183 166 172 9 337 334 334 338 335 343 345 341 341 347 343 336 334 330 327 333 338 342 344 344 346 348 347 350 350 351 349
210 217 221 222 219 220 222 218 219 221 228 218 198 196 206 272 302 314 323 325 323 331 334 333 336 341 344 339 332 329 323 327 332 337 341 343 345 345 341 346 346 347 347
212 222 226 224 220 223 226 218 216 220 223 221 215 217 227 257 287 301 309 316 316 322 325 332 338 337 340 336 334 329 325 324 329 334 338 340 341 343 340 341 341 342 346
218 225 228 227 223 222 222 218 211 220 211 219 222 241 245 265 285 300 304 314 320 322 334 329 332 327 330 334 332 328 327 328 330 332 336 338 338 339 338 338 339 342 345
216 221 226 226 223 219 219 223 213 210 213 204 217 239 262 272 280 298 307 308 310 311 317 321 323 318 323 328 329 328 328 330 332 334 334 335 334 336 337 337 339 341 344
214 220 222 221 221 221 223 224 215 209 216 223 236 251 260 273 278 285 290 297 303 307 310 312 314 309 317 333 327 326 330 332 334 333 333 333 333 335 335 337 340 342 343
218 222 221 219 221 222 224 214 216 217 221 227 246 261 272 282 280 283 280 284 291 299 305 308 313 318 313 319 347 335 336 335 335 335 333 332 332 334 334 336 338 340 343
215 217 221 223 222 218 220 216 222 227 232 238 249 260 262 267 274 267 274 280 294 296 299 299 305 309 311 316 333 344 339 337 336 337 335 331 332 334 333 337 339 339 341
216 220 223 219 216 217 215 218 225 232 238 245 249 257 266 270 275 278 279 281 282 285 291 294 295 325 318 320 321 333 333 336 337 341 337 332 333 333 333 337 337 338 340
217 216 216 216 219 221 222 227 236 242 249 255 265 271 275 275 274 273 270 276 272 282 293 292 297 313 307 308 313 322 327 330 336 339 337 334 333 333 333 337 337 338 340
225 225 220 221 223 224 228 233 238 243 248 253 262 270 273 280 267 284 284 297 291 306 299 310 309 315 309 294 307 323 319 322 331 335 336 335 333 332 333 335 338 340 341
228 230 230 230 233 239 245 247 247 248 251 257 262 266 269 273 282 294 293 290 299 302 307 304 304 301 314 317 318 321 314 319 325 330 335 334 332 330 333 336 338 343 343
225 231 233 232 234 237 240 245 250 255 259 259 263 270 273 279 280 283 286 285 288 294 293 298 303 306 312 308 308 315 315 313 326 327 332 334 333 331 336 337 339 341 344
230 233 237 240 239 243 244 246 251 256 258 261 265 266 270 272 275 282 287 288 288 289 289 291 297 301 300 311 316 310 305 308 320 328 327 335 331 335 339 341 341 339 345
235 238 239 240 241 243 246 248 251 255 258 261 262 267 269 270 274 284 287 284 283 287 289 291 294 297 298 299 311 309 314 305 307 323 325 332 333 337 345 346 344 345 346
246 242 241 244 246 249 253 255 256 256 258 261 264 268 271 272 278 284 285 283 285 288 289 289 293 291 293 302 306 309 307 311 306 319 327 331 334 343 340 340 345 345 344
246 249 251 252 250 250 252 255 258 257 259 263 268 271 274 276 279 279 281 283 286 288 291 291 290 292 294 300 299 302 306 314 304 321 328 329 335 338 338 339 344 344 345
253 252 253 253 253 253 255 256 260 263 264 267 269 271 273 274 274 278 282 284 284 289 292 291 286 289 294 297 294 295 301 312 313 322 321 321 332 337 337 337 343 340 342
249 249 251 253 255 256 258 259 262 263 263 264 265 267 269 271 275 279 283 283 285 286 288 288 287 295 299 304 299 301 287 303 321 319 319 323 333 339 338 336 343 339 342
256 257 254 255 255 255 257 258 258 259 261 262 263 265 268 270 273 278 281 282 284 284 285 287 294 297 306 298 310 320 305 296 300 320 319 327 333 334 333 335 342 339 342
Height
5920 5922 5926 5929 5930 5931 5933 5934 5935 5936 5937 5937 5936 5936 5935 5934 5932 5930 5926 5924 5921 5917 5913 5909 5905 5901 5896 5891 5885 5880 5875 5869 5863 5857 5850 5842 5834 5826 5817 5810 5802 5795 5787
5918 5920 5924 5926 5928 5930 5932 5933 5934 5935 5936 5936 5936 5935 5934 5933 5932 5929 5926 5923 5919 5916 5913 5908 5903 5898 5893 5889 5884 5879 5873 5867 5861 5853 5846 5839 5831 5823 5812 5804 5797 5790 5781
5916 5918 5921 5924 5927 5929 5930 5931 5933 5934 5935 5935 5934 5934 5933 5932 5930 5928 5925 5922 5918 5915 5911 5907 5902 5898 5893 5887 5882 5876 5871 5864 5857 5850 5843 5835 5827 5818 5809 5801 5793 5784 5777
5912 5916 5918 5922 5925 5926 5927 5929 5931 5932 5933 5933 5933 5932 5932 5930 5929 5927 5925 5922 5919 5915 5911 5907 5902 5897 5892 5887 5881 5875 5868 5862 5854 5847 5839 5831 5822 5814 5806 5798 5788 5779 5771
5908 5912 5915 5918 5921 5923 5925 5926 5928 5929 5930 5930 5930 5931 5930 5929 5928 5926 5924 5922 5919 5914 5910 5905 5900 5895 5889 5884 5879 5873 5866 5859 5852 5844 5836 5828 5819 5811 5802 5792 5782 5774 5763
5904 5908 5911 5914 5917 5919 5921 5923 5925 5926 5928 5927 5928 5928 5928 5928 5927 5925 5923 5921 5917 5913 5908 5903 5898 5893 5887 5881 5876 5870 5862 5856 5850 5842 5833 5824 5815 5806 5797 5788 5779 5768 5757
5901 5903 5907 5910 5914 5916 5917 5919 5921 5923 5924 5924 5925 5925 5926 5925 5924 5923 5921 5918 5914 5911 5906 5901 5895 5890 5884 5877 5871 5865 5859 5852 5845 5837 5829 5820 5811 5802 5793 5782 5770 5760 5748
5895 5899 5903 5906 5910 5911 5913 5916 5917 5919 5920 5920 5921 5922 5922 5922 5921 5920 5918 5915 5911 5907 5903 5898 5892 5888 5880 5873 5866 5859 5853 5847 5840 5833 5825 5816 5806 5796 5786 5775 5763 5751 5740
5889 5895 5899 5902 5905 5906 5909 5912 5914 5916 5917 5918 5918 5918 5919 5919 5918 5917 5915 5912 5907 5904 5899 5895 5890 5884 5877 5868 5861 5855 5847 5842 5836 5827 5820 5810 5800 5791 5780 5769 5757 5745 5733
5885 5890 5894 5897 5899 5902 5904 5907 5909 5912 5913 5914 5914 5915 5915 5915 5914 5913 5911 5908 5905 5899 5894 5891 5884 5879 5873 5866 5857 5849 5843 5837 5830 5823 5814 5805 5795 5784 5773 5761 5749 5737 5724
5878 5883 5887 5891 5894 5896 5898 5901 5905 5908 5909 5910 5910 5911 5911 5911 5911 5909 5906 5903 5900 5895 5890 5886 5881 5874 5868 5861 5854 5846 5838 5832 5824 5816 5807 5798 5788 5777 5766 5754 5741 5728 5713
5872 5877 5881 5884 5887 5890 5893 5897 5900 5903 5905 5905 5905 5906 5907 5907 5906 5904 5901 5897 5894 5889 5885 5879 5874 5867 5863 5856 5846 5840 5833 5826 5819 5810 5801 5793 5782 5771 5759 5747 5734 5719 5703
5866 5871 5875 5877 5880 5884 5888 5891 5895 5897 5900 5901 5901 5902 5903 5903 5902 5898 5894 5890 5888 5884 5880 5874 5868 5862 5857 5850 5839 5834 5828 5821 5814 5804 5795 5786 5777 5765 5755 5743 5728 5712 5695
5858 5862 5867 5871 5875 5878 5882 5885 5889 5892 5894 5895 5896 5897 5897 5897 5895 5889 5884 5883 5882 5877 5872 5865 5863 5857 5850 5845 5840 5830 5823 5816 5809 5800 5790 5781 5770 5760 5749 5738 5724 5706 5688
5852 5856 5861 5864 5867 5871 5874 5878 5882 5885 5887 5889 5890 5890 5890 5890 5887 5880 5878 5876 5874 5869 5863 5856 5851 5848 5844 5839 5830 5823 5818 5812 5804 5795 5784 5776 5765 5754 5745 5733 5717 5700 5684
5845 5849 5854 5859 5862 5865 5869 5872 5875 5878 5880 5881 5882 5881 5882 5881 5876 5867 5864 5865 5860 5858 5855 5851 5844 5840 5836 5829 5821 5816 5811 5805 5799 5790 5778 5769 5759 5751 5740 5726 5711 5695 5680
5843 5846 5849 5853 5856 5860 5862 5865 5868 5870 5871 5873 5873 5873 5872 5866 5863 5859 5857 5855 5853 5849 5843 5843 5837 5831 5829 5819 5810 5806 5803 5796 5791 5784 5773 5764 5754 5746 5734 5720 5706 5692 5676
5838 5842 5845 5848 5851 5854 5856 5858 5860 5862 5864 5865 5863 5860 5860 5860 5856 5850 5849 5847 5847 5844 5836 5834 5828 5822 5819 5812 5807 5798 5795 5789 5783 5776 5767 5758 5749 5740 5728 5716 5702 5689 5671
5827 5831 5835 5838 5841 5844 5846 5849 5850 5852 5853 5855 5853 5851 5850 5849 5847 5845 5841 5839 5838 5836 5830 5826 5819 5816 5811 5804 5796 5791 5789 5784 5778 5770 5761 5752 5744 5734 5724 5711 5699 5685 5669
5817 5821 5823 5826 5829 5832 5834 5836 5838 5840 5841 5843 5842 5839 5839 5837 5835 5833 5831 5828 5826 5823 5819 5814 5810 5808 5799 5797 5790 5784 5780 5777 5772 5764 5756 5747 5738 5730 5719 5708 5696 5681 5667
5805 5808 5811 5813 5816 5819 5821 5823 5825 5826 5827 5828 5826 5826 5825 5823 5821 5820 5819 5816 5814 5812 5808 5804 5801 5796 5790 5785 5782 5779 5773 5767 5762 5757 5749 5741 5733 5725 5715 5705 5693 5680 5666
5792 5795 5797 5800 5803 5806 5808 5809 5810 5811 5811 5811 5811 5811 5810 5809 5809 5808 5806 5803 5800 5799 5797 5795 5792 5787 5780 5777 5772 5768 5764 5758 5754 5749 5743 5737 5729 5720 5711 5700 5690 5677 5664
5777 5779 5782 5784 5786 5789 5791 5793 5795 5797 5797 5796 5796 5795 5795 5795 5796 5796 5794 5792 5789 5787 5786 5785 5781 5776 5772 5767 5762 5756 5752 5747 5743 5741 5737 5731 5723 5715 5706 5697 5687 5675 5664
5760 5763 5766 5768 5770 5773 5776 5778 5780 5782 5782 5782 5782 5781 5781 5782 5783 5783 5781 5781 5779 5777 5775 5773 5770 5766 5762 5758 5752 5747 5739 5738 5738 5733 5731 5725 5717 5709 5701 5693 5684 5674 5663
5745 5748 5751 5754 5756 5758 5760 5762 5764 5766 5767 5767 5767 5767 5767 5768 5769 5770 5769 5768 5767 5766 5764 5761 5758 5755 5752 5749 5742 5734 5730 5732 5731 5728 5724 5719 5711 5704 5697 5688 5680 5672 5661
5728 5730 5733 5736 5739 5741 5744 5746 5749 5752 5752 5751 5751 5752 5753 5755 5755 5756 5756 5755 5755 5754 5753 5751 5749 5747 5742 5735 5736 5730 5726 5725 5723 5721 5717 5712 5705 5698 5690 5683 5675 5667 5659